Location: Falniów
(50.3639°N, 19.9642°E)
Time: 19:56:58
(UTC+00:00)

SL-08 R/B - Pass Details

Date: 27 April 2026
Orbit: 667 x 728 km, 98.5° (Epoch: 13 May)

Event Time Altitude Azimuth Distance (km) Brightness Sun altitude
Rises 18:39:42 0° 20° (NNE) 3,164 6.9 -7.3°
Reaches altitude 10° 18:42:08 10° 28° (NNE) 2,236 6.0 -7.6°
Maximum altitude 18:46:46 40° 98° (E) 1,063 3.9 -8.3°
Drops below altitude 10° 18:51:19 10° 168° (SSE) 2,204 5.5 -8.9°
Sets 18:53:42 0° 175° (S) 3,112 6.3 -9.2°
